KB3HHA-13 Weather Reports


time (UTC)temp
C
wind
direction
speed
KPH
gust
KPH
rain 1hr
cm
rain 24hr
cm
rain mn
cm
humidity
%
barometer
mb
20260510045201 11 45 0.0 0.0 0.00 0.00 0.00 93 1010.3
20260510044701 12 45 0.0 0.0 0.00 0.00 0.00 93 1010.3
20260510044200 12 45 0.0 0.0 0.00 0.00 0.00 93 1010.4
20260510043700 12 45 0.0 0.0 0.00 0.00 0.00 92 1010.4
20260510043201 12 45 0.0 0.0 0.00 0.00 0.00 92 1010.4
20260510042700 12 45 0.0 0.0 0.00 0.00 0.00 92 1010.4
20260510042201 12 45 0.0 0.0 0.00 0.00 0.00 92 1010.3
20260510041700 12 45 0.0 0.0 0.00 0.00 0.00 92 1010.3
20260510041200 12 45 0.0 0.0 0.00 0.00 0.00 92 1010.2
20260510040701 12 45 0.0 0.0 0.00 0.00 0.00 92 1010.3
20260510040200 12 45 0.0 0.0 0.00 0.00 0.00 92 1010.3
20260510035700 12 45 0.0 0.0 0.00 0.00 0.00 91 1010.2
20260510035202 12 45 0.0 0.0 0.00 0.00 0.00 91 1010.2
20260510034700 12 45 0.0 0.0 0.00 0.00 0.00 91 1010.2
20260510034201 12 45 0.0 0.0 0.00 0.00 0.00 91 1010.1
20260510033701 12 45 0.0 0.0 0.00 0.00 0.00 91 1010.1
20260510033201 12 45 0.0 0.0 0.00 0.00 0.00 90 1010.0
20260510032700 13 45 0.0 0.0 0.00 0.00 0.00 90 1010.0
20260510032200 13 45 0.0 0.0 0.00 0.00 0.00 90 1010.0
20260510031701 13 45 0.0 0.0 0.00 0.00 0.00 90 1010.0
20260510031200 13 45 0.0 0.0 0.00 0.00 0.00 90 1009.9
20260510030702 13 45 0.0 0.0 0.00 0.00 0.00 90 1010.0
20260510030200 13 45 0.0 0.0 0.00 0.00 0.00 89 1010.0
20260510025700 13 45 0.0 0.0 0.00 0.00 0.00 89 1010.0
20260510025202 13 45 0.0 0.0 0.00 0.00 0.00 89 1010.0
20260510024700 13 45 0.0 0.0 0.00 0.00 0.00 88 1009.9
20260510024201 13 45 0.0 0.0 0.00 0.00 0.00 88 1010.0
20260510023701 13 45 0.0 0.0 0.00 0.00 0.00 88 1009.8
20260510023201 13 45 0.0 0.0 0.00 0.00 0.00 87 1009.8
20260510022700 13 45 0.0 0.0 0.00 0.00 0.00 87 1009.8
20260510022200 13 45 0.0 0.0 0.00 0.00 0.00 87 1009.6
20260510021701 14 45 0.0 0.0 0.00 0.00 0.00 86 1009.7
20260510021201 14 45 0.0 0.0 0.00 0.00 0.00 86 1009.7
20260510020700 14 45 0.0 0.0 0.00 0.00 0.00 86 1009.6
20260510020201 14 45 0.0 0.0 0.00 0.00 0.00 85 1009.7
20260510015701 15 45 0.0 0.0 0.00 0.00 0.00 85 1009.5
20260510015200 15 45 0.0 0.0 0.00 0.00 0.00 84 1009.5
20260510014701 15 45 0.0 0.0 0.00 0.00 0.00 84 1009.5
20260510014200 15 45 0.0 0.0 0.00 0.00 0.00 84 1009.5
20260510013701 15 45 0.0 0.0 0.00 0.00 0.00 83 1009.5
20260510013202 15 45 0.0 0.0 0.00 0.00 0.00 83 1009.4
20260510012702 15 45 0.0 0.0 0.00 0.00 0.00 82 1009.3
20260510012200 16 45 0.0 0.0 0.00 0.00 0.00 82 1009.2
20260510011702 16 45 0.0 0.0 0.00 0.00 0.00 82 1009.0
20260510011200 16 45 0.0 0.0 0.00 0.00 0.00 81 1009.0
20260510010700 16 45 0.0 0.0 0.00 0.00 0.00 81 1008.9
20260510010200 16 45 0.0 0.0 0.00 0.00 0.00 80 1008.8
20260510005701 17 45 0.0 0.0 0.00 0.00 0.00 79 1008.7
20260510005201 17 45 0.0 0.0 0.00 0.00 0.00 79 1008.7
20260510004701 17 45 0.0 0.0 0.00 0.00 0.00 78 1008.6
20260510004200 17 45 0.0 0.0 0.00 0.00 0.00 78 1008.6
20260510003700 18 45 0.0 0.0 0.00 0.00 0.00 77 1008.5
20260510003200 18 45 0.0 0.0 0.00 0.00 0.00 77 1008.6
20260510002700 18 45 0.0 0.0 0.00 0.00 0.00 76 1008.5
20260510002200 18 45 0.0 0.0 0.00 0.00 0.00 75 1008.5
20260510001701 19 45 0.0 0.0 0.00 0.00 0.00 75 1008.5
20260510001201 19 45 0.0 0.0 0.00 0.00 0.00 75 1008.4
20260510000701 20 45 0.0 0.0 0.00 0.00 0.00 74 1008.4
20260510000200 20 45 0.0 0.0 0.00 0.00 0.00 72 1008.4
20260509235700 20 45 0.0 0.0 0.00 0.00 0.00 71 1008.3
20260509235200 20 45 0.0 0.0 0.00 0.00 0.00 69 1008.3
20260509234700 20 45 0.0 0.0 0.00 0.00 0.00 68 1008.3
20260509234201 20 45 0.0 0.0 0.00 0.00 0.00 69 1008.2
20260509233701 21 45 0.0 0.0 0.00 0.00 0.00 68 1008.2
20260509233201 21 45 0.0 0.0 0.00 0.00 0.00 67 1008.1
20260509232700 21 45 0.0 0.0 0.00 0.00 0.00 67 1008.1
20260509232202 21 45 0.0 0.0 0.00 0.00 0.00 67 1008.1
20260509231703 21 45 0.0 0.0 0.00 0.00 0.00 66 1008.0
20260509231200 21 45 0.0 0.0 0.00 0.00 0.00 64 1008.0
20260509230700 21 45 0.0 0.0 0.00 0.00 0.00 64 1008.1
20260509230200 21 45 0.0 0.0 0.00 0.00 0.00 64 1008.1
20260509225703 21 45 0.0 0.0 0.00 0.00 0.00 60 1008.1
20260509225201 21 45 0.0 0.0 0.00 0.00 0.00 63 1008.1
20260509224700 21 45 0.0 0.0 0.00 0.00 0.00 63 1008.2
20260509224200 21 45 0.0 0.0 0.00 0.00 0.00 62 1008.1
20260509223700 21 45 0.0 0.0 0.00 0.00 0.00 61 1008.1
20260509223202 21 45 0.0 0.0 0.00 0.00 0.00 58 1008.1
20260509222701 21 45 0.0 0.0 0.00 0.00 0.00 57 1008.1
20260509222202 21 45 0.0 0.0 0.00 0.00 0.00 56 1008.1
20260509221700 21 45 0.0 0.0 0.00 0.00 0.00 55 1008.2
20260509221201 22 45 0.0 0.0 0.00 0.00 0.00 54 1008.1
20260509220701 22 45 0.0 0.0 0.00 0.00 0.00 53 1008.1
20260509220202 22 45 0.0 0.0 0.00 0.00 0.00 54 1008.1
20260509215700 22 45 0.0 0.0 0.00 0.00 0.00 52 1008.1
20260509215200 22 45 0.0 0.0 0.00 0.00 0.00 52 1008.1
20260509214700 22 45 0.0 0.0 0.00 0.00 0.00 53 1008.1
20260509214202 22 22 0.0 0.0 0.00 0.00 0.00 53 1008.1
20260509213702 22 22 0.0 3.2 0.00 0.00 0.00 51 1008.0
20260509213202 22 67 0.0 3.2 0.00 0.00 0.00 52 1008.2
20260509212701 22 67 0.0 3.2 0.00 0.00 0.00 51 1008.2
20260509212200 22 67 0.0 4.8 0.00 0.00 0.00 54 1008.1
20260509211700 22 90 1.6 9.7 0.00 0.00 0.00 52 1008.1
20260509211202 22 67 3.2 9.7 0.00 0.00 0.00 53 1008.1
20260509210700 22 90 0.0 6.4 0.00 0.00 0.00 52 1008.1
20260509210201 22 90 3.2 6.4 0.00 0.00 0.00 53 1008.1
20260509205702 22 67 0.0 9.7 0.00 0.00 0.00 54 1008.1
20260509205200 22 90 1.6 9.7 0.00 0.00 0.00 53 1008.1
20260509204700 22 90 1.6 8.0 0.00 0.00 0.00 54 1008.2
20260509204202 22 202 1.6 4.8 0.00 0.00 0.00 55 1008.1
20260509203701 22 202 0.0 4.8 0.00 0.00 0.00 53 1008.1
20260509203201 22 45 1.6 4.8 0.00 0.00 0.00 53 1008.1
20260509202701 22 67 0.0 9.7 0.00 0.00 0.00 54 1008.1
20260509202201 23 67 1.6 11.3 0.00 0.00 0.00 53 1008.0
20260509201702 23 112 1.6 11.3 0.00 0.00 0.00 52 1008.0
20260509201200 23 67 4.8 8.0 0.00 0.00 0.00 52 1008.1
20260509200700 23 90 3.2 9.7 0.00 0.00 0.00 52 1008.1
20260509200201 23 45 4.8 9.7 0.00 0.00 0.00 56 1008.2
20260509195700 23 67 0.0 6.4 0.00 0.00 0.00 55 1008.2
20260509195200 23 90 1.6 8.0 0.00 0.00 0.00 55 1008.2
20260509194700 22 67 1.6 11.3 0.00 0.00 0.00 56 1008.2
20260509194200 22 90 3.2 11.3 0.00 0.00 0.00 54 1008.4
20260509193700 22 67 3.2 8.0 0.00 0.00 0.00 53 1008.5
20260509193200 22 112 1.6 8.0 0.00 0.00 0.00 54 1008.5
20260509192700 22 112 4.8 8.0 0.00 0.00 0.00 54 1008.7
20260509192202 22 67 1.6 6.4 0.00 0.00 0.00 55 1008.6
20260509191701 22 22 0.0 4.8 0.00 0.00 0.00 56 1008.7
20260509191200 22 90 0.0 8.0 0.00 0.00 0.00 56 1008.9
20260509190701 22 90 0.0 8.0 0.00 0.00 0.00 53 1009.0
20260509190201 22 67 1.6 8.0 0.00 0.00 0.00 54 1009.1
20260509185700 22 45 0.0 4.8 0.00 0.00 0.00 55 1009.0
20260509185201 22 0 1.6 6.4 0.00 0.00 0.00 54 1008.9
20260509184701 22 90 0.0 6.4 0.00 0.00 0.00 55 1008.9
20260509184202 21 45 0.0 6.4 0.00 0.00 0.00 58 1009.1
20260509183701 21 67 0.0 6.4 0.00 0.00 0.00 58 1009.3
20260509183202 21 22 0.0 6.4 0.00 0.00 0.00 57 1009.3
20260509182702 20 45 0.0 4.8 0.00 0.00 0.00 61 1009.3
20260509182201 20 22 1.6 4.8 0.00 0.00 0.00 61 1009.4
20260509181700 20 45 0.0 0.0 0.00 0.00 0.00 60 1009.4
20260509181200 20 45 0.0 0.0 0.00 0.00 0.00 61 1009.4
20260509180701 20 45 0.0 0.0 0.00 0.00 0.00 59 1009.6
20260509180200 19 67 0.0 0.0 0.00 0.00 0.00 59 1009.9
20260509175700 19 45 0.0 0.0 0.00 0.00 0.00 61 1010.1
20260509175201 19 45 0.0 0.0 0.00 0.00 0.00 61 1010.3
20260509174700 19 22 0.0 0.0 0.00 0.00 0.00 60 1010.2
20260509174200 19 0 0.0 0.0 0.00 0.00 0.00 59 1010.2
20260509173700 20 0 0.0 1.6 0.00 0.00 0.00 58 1010.2
20260509173202 20 45 0.0 4.8 0.00 0.00 0.00 57 1010.2
20260509172700 20 45 0.0 4.8 0.00 0.00 0.00 58 1010.3
20260509172201 19 0 1.6 4.8 0.00 0.00 0.00 59 1010.5
20260509171702 19 90 0.0 4.8 0.00 0.00 0.00 59 1010.6
20260509171201 19 67 3.2 4.8 0.00 0.00 0.00 57 1010.6
20260509170700 19 67 0.0 0.0 0.00 0.00 0.00 57 1010.6
20260509170201 19 45 0.0 0.0 0.00 0.00 0.00 58 1010.6
20260509165700 19 45 0.0 1.6 0.00 0.00 0.00 57 1010.7
20260509165200 19 90 0.0 4.8 0.00 0.00 0.00 57 1010.7
20260509164702 19 67 1.6 4.8 0.00 0.00 0.00 56 1010.7
20260509164201 19 67 1.6 4.8 0.00 0.00 0.00 56 1010.7
20260509163700 19 90 0.0 6.4 0.00 0.00 0.00 56 1010.6
20260509163200 19 45 1.6 6.4 0.00 0.00 0.00 58 1010.6
20260509162700 19 45 0.0 3.2 0.00 0.00 0.00 59 1010.6
20260509162202 18 90 0.0 3.2 0.00 0.00 0.00 57 1010.7
20260509161702 18 67 0.0 3.2 0.00 0.00 0.00 56 1010.8
20260509161201 19 90 0.0 3.2 0.00 0.00 0.00 56 1010.8
20260509160700 19 67 0.0 4.8 0.00 0.00 0.00 56 1010.8
20260509160200 19 67 0.0 4.8 0.00 0.00 0.00 56 1010.7
20260509155702 18 45 0.0 1.6 0.00 0.00 0.00 58 1010.8
20260509155202 18 45 0.0 3.2 0.00 0.00 0.00 58 1010.7
20260509154701 18 22 0.0 4.8 0.00 0.00 0.00 58 1010.8
20260509154201 18 45 1.6 4.8 0.00 0.00 0.00 60 1010.8
20260509153701 18 67 0.0 3.2 0.00 0.00 0.00 59 1010.8
20260509153200 17 45 0.0 3.2 0.00 0.00 0.00 59 1011.0
20260509152702 17 45 1.6 3.2 0.00 0.00 0.00 60 1010.9
20260509152201 17 90 0.0 6.4 0.00 0.00 0.00 59 1011.0
20260509151701 17 67 1.6 8.0 0.00 0.00 0.00 59 1010.9
20260509151200 17 67 1.6 8.0 0.00 0.00 0.00 61 1011.0
20260509150700 17 90 0.0 3.2 0.00 0.00 0.00 61 1010.9
20260509150200 17 67 0.0 4.8 0.00 0.00 0.00 61 1011.0
20260509145701 17 67 1.6 4.8 0.00 0.00 0.00 62 1011.1
20260509145202 16 67 0.0 6.4 0.00 0.00 0.00 61 1011.3
20260509144701 16 90 1.6 6.4 0.00 0.00 0.00 62 1011.2
20260509144200 16 112 0.0 6.4 0.00 0.00 0.00 62 1011.4
20260509143700 16 67 1.6 6.4 0.00 0.00 0.00 62 1011.4
20260509143201 16 45 0.0 6.4 0.00 0.00 0.00 62 1011.3
20260509142700 16 45 1.6 8.0 0.00 0.00 0.00 63 1011.4
20260509142201 16 67 1.6 8.0 0.00 0.00 0.00 64 1011.5
20260509141700 16 45 0.0 1.6 0.00 0.00 0.00 63 1011.6
20260509141201 16 45 0.0 1.6 0.00 0.00 0.00 64 1011.4
20260509140701 16 45 0.0 1.6 0.00 0.00 0.00 64 1011.2
20260509140201 16 67 0.0 1.6 0.00 0.00 0.00 63 1011.2
20260509135700 16 67 0.0 1.6 0.00 0.00 0.00 64 1011.1
20260509135200 16 90 0.0 1.6 0.00 0.00 0.00 63 1011.2
20260509134703 16 90 0.0 3.2 0.00 0.00 0.00 62 1011.3
20260509134202 16 90 1.6 3.2 0.00 0.00 0.00 61 1011.3
20260509133700 16 67 1.6 3.2 0.00 0.00 0.00 62 1011.4
20260509133200 16 67 0.0 4.8 0.00 0.00 0.00 63 1011.4
20260509132700 16 67 0.0 4.8 0.00 0.00 0.00 62 1011.4
20260509132201 15 90 1.6 4.8 0.00 0.00 0.00 64 1011.4
20260509131700 15 67 0.0 4.8 0.00 0.00 0.00 62 1011.3
20260509131201 15 67 1.6 4.8 0.00 0.00 0.00 63 1011.4
20260509130701 15 67 1.6 3.2 0.00 0.00 0.00 63 1011.4
20260509130200 15 90 0.0 1.6 0.00 0.00 0.00 64 1011.4
20260509125700 15 90 0.0 1.6 0.00 0.00 0.00 65 1011.4
20260509125200 15 67 0.0 3.2 0.00 0.00 0.00 64 1011.4
20260509124701 15 90 0.0 3.2 0.00 0.00 0.00 64 1011.4
20260509124201 15 90 0.0 4.8 0.00 0.00 0.00 65 1011.4
20260509123701 15 67 0.0 4.8 0.00 0.00 0.00 65 1011.3
20260509123200 15 67 1.6 3.2 0.00 0.00 0.00 68 1011.3
20260509122700 14 67 0.0 1.6 0.00 0.00 0.00 71 1011.3
20260509122200 14 45 0.0 3.2 0.00 0.00 0.00 73 1011.4
20260509121702 13 45 0.0 3.2 0.00 0.00 0.00 75 1011.5
20260509121201 13 45 0.0 0.0 0.00 0.00 0.00 74 1011.5
20260509120700 13 67 0.0 0.0 0.00 0.00 0.00 80 1011.5
20260509120201 13 90 0.0 0.0 0.00 0.00 0.00 81 1011.5
20260509115701 13 90 0.0 0.0 0.00 0.00 0.00 80 1011.3
20260509115201 13 90 0.0 0.0 0.00 0.00 0.00 79 1011.3
20260509114700 13 90 0.0 0.0 0.00 0.00 0.00 79 1011.1
20260509114201 12 90 0.0 0.0 0.00 0.00 0.00 79 1011.1
20260509113702 12 90 0.0 0.0 0.00 0.00 0.00 79 1011.1
20260509113201 12 90 0.0 0.0 0.00 0.00 0.00 80 1011.1
20260509112700 12 67 0.0 0.0 0.00 0.00 0.00 79 1011.0
20260509112201 12 45 0.0 0.0 0.00 0.00 0.00 83 1010.9
20260509111700 12 45 0.0 0.0 0.00 0.00 0.00 84 1010.8
20260509111200 11 45 0.0 0.0 0.00 0.00 0.00 83 1010.8
20260509110704 11 45 0.0 0.0 0.00 0.00 0.00 84 1010.8
20260509110201 11 45 0.0 0.0 0.00 0.00 0.00 85 1010.9
20260509105703 11 45 0.0 0.0 0.00 0.00 0.00 85 1010.9
20260509105200 11 45 0.0 0.0 0.00 0.00 0.00 84 1010.8
20260509104701 11 45 0.0 0.0 0.00 0.00 0.00 83 1010.7
20260509104201 11 45 0.0 0.0 0.00 0.00 0.00 83 1010.7
20260509103700 11 45 0.0 0.0 0.00 0.00 0.00 83 1010.5
20260509103201 11 45 0.0 0.0 0.00 0.00 0.00 82 1010.5
20260509102701 11 45 0.0 0.0 0.00 0.00 0.00 82 1010.5
20260509102201 11 45 0.0 0.0 0.00 0.00 0.00 82 1010.4
20260509101700 11 45 0.0 0.0 0.00 0.00 0.00 80 1010.5
20260509101202 11 45 0.0 0.0 0.00 0.00 0.00 81 1010.6
20260509100701 11 45 0.0 0.0 0.00 0.00 0.00 81 1010.5
20260509100201 11 45 0.0 0.0 0.00 0.00 0.00 81 1010.6
20260509095700 11 45 0.0 0.0 0.00 0.00 0.00 80 1010.4
20260509095200 11 45 0.0 0.0 0.00 0.00 0.00 81 1010.4
20260509094700 11 45 0.0 0.0 0.00 0.00 0.00 81 1010.4
20260509094200 11 45 0.0 0.0 0.00 0.00 0.00 81 1010.5
20260509093700 11 45 0.0 0.0 0.00 0.00 0.00 81 1010.6
20260509093201 11 45 0.0 0.0 0.00 0.00 0.00 82 1010.6
20260509092700 11 45 0.0 0.0 0.00 0.00 0.00 82 1010.7
20260509092201 11 45 0.0 0.0 0.00 0.00 0.00 81 1010.8
20260509091701 11 45 0.0 0.0 0.00 0.00 0.00 81 1010.8
20260509091200 11 45 0.0 0.0 0.00 0.00 0.00 81 1010.8
20260509090700 11 45 0.0 0.0 0.00 0.00 0.00 81 1010.8
20260509090202 11 45 0.0 0.0 0.00 0.00 0.00 82 1010.8
20260509085700 11 45 0.0 0.0 0.00 0.00 0.00 81 1010.9
20260509085201 11 45 0.0 0.0 0.00 0.00 0.00 81 1011.0
20260509084701 11 45 0.0 0.0 0.00 0.00 0.00 80 1011.0
20260509084201 11 45 0.0 0.0 0.00 0.00 0.00 81 1011.0
20260509083700 11 45 0.0 0.0 0.00 0.00 0.00 82 1011.0
20260509083200 11 45 0.0 0.0 0.00 0.00 0.00 83 1011.1
20260509082701 10 45 0.0 0.0 0.00 0.00 0.00 84 1011.0
20260509082203 10 45 0.0 0.0 0.00 0.00 0.00 85 1011.1
20260509081700 10 45 0.0 0.0 0.00 0.00 0.00 86 1011.2
20260509081200 10 45 0.0 0.0 0.00 0.00 0.00 86 1011.2
20260509080702 10 45 0.0 0.0 0.00 0.00 0.00 87 1011.2
20260509080201 10 45 0.0 0.0 0.00 0.00 0.00 87 1011.3
20260509075700 10 45 0.0 0.0 0.00 0.00 0.00 87 1011.4
20260509075200 10 45 0.0 0.0 0.00 0.00 0.00 87 1011.4
20260509074700 10 45 0.0 0.0 0.00 0.00 0.00 88 1011.3
20260509074201 10 45 0.0 0.0 0.00 0.00 0.00 88 1011.3
20260509073701 10 45 0.0 0.0 0.00 0.00 0.00 88 1011.4
20260509073200 10 45 0.0 0.0 0.00 0.00 0.00 88 1011.4
20260509072703 10 45 0.0 0.0 0.00 0.00 0.00 88 1011.4
20260509072200 10 45 0.0 0.0 0.00 0.00 0.00 88 1011.4
20260509071701 10 45 0.0 0.0 0.00 0.00 0.00 88 1011.3
20260509071201 9 45 0.0 0.0 0.00 0.00 0.00 89 1011.3
20260509070700 9 45 0.0 0.0 0.00 0.00 0.00 89 1011.3
20260509070201 9 45 0.0 0.0 0.00 0.00 0.00 89 1011.3
20260509065701 9 45 0.0 0.0 0.00 0.00 0.00 89 1011.3
20260509065200 9 45 0.0 0.0 0.00 0.00 0.00 89 1011.4
20260509064701 9 45 0.0 0.0 0.00 0.00 0.00 89 1011.3
20260509064203 9 45 0.0 0.0 0.00 0.00 0.00 89 1011.3
20260509063702 9 45 0.0 0.0 0.00 0.00 0.00 89 1011.4
20260509063201 9 45 0.0 0.0 0.00 0.00 0.00 89 1011.5
20260509062701 9 45 0.0 0.0 0.00 0.00 0.00 89 1011.5
20260509062201 8 45 0.0 0.0 0.00 0.00 0.00 89 1011.5
20260509061700 8 45 0.0 0.0 0.00 0.00 0.00 89 1011.6
20260509061200 8 45 0.0 0.0 0.00 0.00 0.00 89 1011.6
20260509060700 8 45 0.0 0.0 0.00 0.00 0.00 89 1011.6
20260509060201 8 45 0.0 0.0 0.00 0.00 0.00 89 1011.7
20260509055702 8 45 0.0 0.0 0.00 0.00 0.00 88 1011.7
20260509055200 8 45 0.0 0.0 0.00 0.00 0.00 88 1011.7
20260509054701 8 45 0.0 0.0 0.00 0.00 0.00 88 1011.7
20260509054202 8 45 0.0 0.0 0.00 0.00 0.00 88 1011.7
20260509053700 8 45 0.0 0.0 0.00 0.00 0.00 88 1011.7
20260509053201 8 45 0.0 0.0 0.00 0.00 0.00 88 1011.8
20260509052700 9 45 0.0 0.0 0.00 0.00 0.00 88 1011.8
20260509052200 9 45 0.0 0.0 0.00 0.00 0.00 88 1011.8
20260509051700 9 45 0.0 0.0 0.00 0.00 0.00 88 1011.8
20260509051200 8 45 0.0 0.0 0.00 0.00 0.00 88 1011.8
20260509050702 8 45 0.0 0.0 0.00 0.00 0.00 88 1011.8
20260509050202 8 45 0.0 0.0 0.00 0.00 0.00 88 1011.8
20260509045703 8 45 0.0 0.0 0.00 0.00 0.00 88 1011.7